[[{"header":{"parameterUnit":"m.s-1","parameterCategory":1,"la1":30.2991,"la2":30.254,"lo1":-89.0895,"lo2":-89.0444,"dy":0.0017,"dx":0.0017,"nx":28,"ny":28,"refTime":"2024-02-25T03:00:00:Z","depth":0,"parameterNumber":2,"parameterNumberName":"U-component_of_WINDS"},"data":[0,0,0,0,0,0,0,0,0,0,0,0,0,0,0,0,0,0,0,0,0,0,0,0,0,0,0,0,0,0,0,0,0,0,0,0,0,0,0,0,0,0,0,0,0,0,0,0,0,0,0,0,0,0,0,0,0,0,0.1675,0.1673,0,0.1517,0.1515,0.1513,0.1419,0.1418,0.1418,0.1417,0.1258,0.1255,0.1251,0,0,0,0,0,0,0,0,0,0,0,0,0,0.1897,0.1893,0.1675,0.1673,0.1671,0.1517,0.1515,0.1513,0.1419,0.1418,0.1418,0.1417,0.126,0.1255,0.1251,0,0,0,0,0,0,0,0,0,0,0,0,0,0.1776,0.1892,0.1675,0.1605,0.1598,0.1518,0.1515,0.1512,0.1419,0.1418,0.1418,0.1417,0.1261,0.1256,0.125,0.1228,0,0,0.1232,0.123,0,0,0,0,0,0,0,0,0.1783,0.1768,0.1618,0.161,0.1601,0.1487,0.1535,0.1417,0.1419,0.1487,0.1417,0.1417,0.1335,0.1323,0.1295,0.1221,0.1214,0.1232,0.1229,0.1226,0.1224,0,0,0,0,0,0,0,0.1792,0.1774,0.1612,0.1616,0.1606,0.1583,0.1565,0.1512,0.1417,0.1481,0.1474,0.1456,0.1331,0.1301,0.1291,0.1211,0.1232,0.1227,0.1224,0.1221,0.111,0.1111,0,0,0,0,0,0,0.1811,0.1782,0.1617,0.1608,0.1692,0.1579,0.1559,0.1524,0.1417,0.14,0.1457,0.1452,0.1311,0.1298,0.1285,0.1251,0.1226,0.1221,0.1217,0.111,0.111,0.1111,0,0,0,0,0,0,0.1816,0.1797,0.1624,0.1693,0.1669,0.1576,0.1538,0.1521,0.1492,0.1399,0.1382,0.1444,0.131,0.1293,0.1242,0.1244,0.1218,0.1213,0.1109,0.111,0.111,0.1185,0,0,0,0,0,0,0.1823,0.1799,0.179,0.1693,0.1666,0.1584,0.1538,0.1519,0.1482,0.1474,0.1382,0.1366,0.1308,0.1251,0.1237,0.1236,0.1208,0.1108,0.1109,0.111,0.1182,0.1188,0.1193,0,0,0,0,0,0.1831,0.1818,0.179,0.177,0.1651,0.1584,0.1568,0.1501,0.1482,0.1472,0.1412,0.1369,0.1247,0.1247,0.123,0.1227,0.1108,0.1109,0.111,0.1179,0.1187,0.1193,0,0,0,0,0,0,0.1918,0.1804,0.1771,0.1726,0.1665,0.1568,0.1553,0.1511,0.1455,0.145,0.137,0.135,0.1307,0.1262,0.1265,0.12,0.1173,0.117,0.1231,0.1237,0.1243,0.1255,0.1204,0,0,0,0,0,0.1932,0.1886,0.1789,0.1758,0.1729,0.1647,0.1615,0.1568,0.1502,0.1476,0.1412,0.1351,0.1298,0.1265,0.1212,0.1175,0.1153,0.1165,0.1171,0.1176,0.1175,0.1151,0.1155,0.1114,0.1114,0.1114,0,0,0.196,0.1892,0.1868,0.1774,0.1721,0.1676,0.1626,0.158,0.1546,0.1469,0.1417,0.1369,0.1295,0.1251,0.1228,0.1212,0.1181,0.1177,0.1182,0.1178,0.1153,0.1157,0.116,0.1115,0.1115,0.1115,0,0,0.1988,0.1932,0.19,0.1848,0.1768,0.1713,0.1706,0.1614,0.1579,0.1525,0.1467,0.1426,0.1337,0.1286,0.1249,0.1257,0.1216,0.1243,0.1273,0.1251,0.1254,0.1256,0.1259,0.1261,0.1242,0.1242,0.1242,0,0.2033,0.1961,0.1889,0.1846,0.1807,0.1735,0.1702,0.1655,0.1563,0.1538,0.1521,0.1407,0.1352,0.1295,0.1297,0.127,0.1259,0.1252,0.1259,0.1261,0.1262,0.1264,0.1265,0.1246,0.1245,0.1245,0.1244,0,0.2021,0.1972,0.1956,0.1868,0.1826,0.1789,0.1712,0.1679,0.1636,0.1583,0.1529,0.1461,0.1392,0.1375,0.1333,0.1312,0.1304,0.1274,0.1245,0.1271,0.1271,0.1271,0.1251,0.125,0.1249,0.1248,0,0,0.2099,0.197,0.1965,0.1924,0.1831,0.1792,0.1752,0.1684,0.1657,0.1596,0.156,0.1486,0.1458,0.1416,0.1368,0.1349,0.1359,0.1321,0.1318,0.133,0.1331,0.1354,0.1356,0.1331,0.1331,0.1331,0.1337,0,0.2113,0.2035,0.1969,0.1916,0.1871,0.1801,0.1766,0.1706,0.1655,0.161,0.1554,0.1503,0.147,0.1444,0.1422,0.1363,0.1358,0.1361,0.1297,0.1296,0.1317,0.1356,0.1379,0.1389,0.1337,0.1337,0.1337,0,0.2118,0.2059,0.2002,0.1912,0.1891,0.186,0.1792,0.1749,0.1679,0.1644,0.1597,0.1546,0.1501,0.1476,0.1413,0.1416,0.1386,0.1353,0.1352,0.1343,0.1318,0.1348,0.139,0.1392,0.1336,0.1336,0.1336,0,0.218,0.2086,0.2039,0.2006,0.1901,0.1881,0.1837,0.1766,0.1729,0.167,0.1645,0.1582,0.1548,0.1501,0.1434,0.1423,0.1378,0.1348,0.1347,0.1349,0.134,0.1342,0.1379,0.1323,0.1323,0.1323,0.1323,0,0.2202,0.217,0.2065,0.2037,0.1998,0.1923,0.1887,0.1837,0.1775,0.1735,0.1672,0.1637,0.1552,0.1506,0.1455,0.141,0.1395,0.1365,0.1352,0.137,0.1374,0.1349,0.1347,0.1323,0.1323,0.1323,0.1323,0,0.2265,0.2193,0.2138,0.2043,0.2018,0.1994,0.1913,0.1883,0.1829,0.178,0.1764,0.168,0.1623,0.1552,0.1474,0.1439,0.1399,0.1379,0.1423,0.1414,0.1418,0.1418,0.1439,0.1438,0.1384,0.1385,0.1385,0,0.2283,0.2256,0.2158,0.2127,0.2084,0.2035,0.1996,0.1921,0.1884,0.1802,0.1782,0.172,0.1666,0.1579,0.1511,0.1451,0.1428,0.144,0.1419,0.1438,0.1428,0.143,0.1427,0.1445,0.1446,0.1447,0.1448,0,0.2323,0.2289,0.2236,0.217,0.2126,0.2071,0.2013,0.1991,0.1904,0.1866,0.1806,0.1765,0.1684,0.1623,0.1554,0.1509,0.1464,0.1455,0.1451,0.147,0.1496,0.1481,0.1437,0.1455,0.1454,0.1453,0.1453,0.1453,0.2363,0.2336,0.2262,0.2205,0.2154,0.2101,0.2068,0.2009,0.1958,0.1885,0.1845,0.1787,0.1717,0.1619,0.1576,0.153,0.1513,0.1508,0.1507,0.1507,0.1512,0.1504,0.1517,0.1517,0.1516,0.1516,0.1516,0,0.2399,0.2348,0.2296,0.2217,0.2172,0.2133,0.2067,0.2032,0.1982,0.192,0.1869,0.1801,0.1742,0.1669,0.1606,0.1583,0.156,0.1568,0.1569,0.1559,0.1531,0.154,0.1587,0.1587,0.1587,0.1587,0.1587,0.1587,0.2412,0.2364,0.2321,0.2247,0.2196,0.2138,0.2104,0.2055,0.2006,0.1932,0.1882,0.1835,0.177,0.17,0.1645,0.1625,0.1604,0.1619,0.1593,0.1568,0.1561,0.1555,0.1563,0.1615,0.1615,0.1625,0.1625,0.1625]},{"header":{"parameterUnit":"m.s-1","parameterCategory":1,"la1":30.2991,"la2":30.254,"lo1":-89.0895,"lo2":-89.0444,"dy":0.0017,"dx":0.0017,"nx":28,"ny":28,"refTime":"2024-02-25T03:00:00:Z","depth":0,"parameterNumber":3,"parameterNumberName":"V-component_of_WINDS"},"data":[0,0,0,0,0,0,0,0,0,0,0,0,0,0,0,0,0,0,0,0,0,0,0,0,0,0,0,0,0,0,0,0,0,0,0,0,0,0,0,0,0,0,0,0,0,0,0,0,0,0,0,0,0,0,0,0,0,0,3.9968,3.9969,0,4.0037,4.0038,4.0039,4.0067,4.0067,4.0066,4.0066,4.0141,4.0143,4.0145,0,0,0,0,0,0,0,0,0,0,0,0,0,3.9868,3.9869,3.9968,3.9969,3.997,4.0037,4.0038,4.0039,4.0067,4.0067,4.0066,4.0066,4.014,4.0143,4.0146,0,0,0,0,0,0,0,0,0,0,0,0,0,3.9921,3.987,3.9968,3.9992,3.9995,4.0037,4.0038,4.0039,4.0067,4.0067,4.0066,4.0066,4.014,4.0143,4.0146,4.0171,0,0,4.0156,4.0157,0,0,0,0,0,0,0,0,3.9918,3.9925,3.9988,3.999,3.9994,4.0043,4.003,4.0083,4.0067,4.004,4.0066,4.0066,4.0109,4.0115,4.0128,4.0174,4.0178,4.0156,4.0158,4.0159,4.016,0,0,0,0,0,0,0,3.9915,3.9922,3.9996,3.9988,3.9992,4.0001,4.0009,4.004,4.0075,4.0042,4.0044,4.0052,4.0111,4.0125,4.013,4.0179,4.0156,4.0159,4.0161,4.0162,4.0252,4.0253,0,0,0,0,0,0,3.9906,3.9919,3.9993,3.9998,3.9954,4.0003,4.0011,4.0027,4.0075,4.0082,4.0052,4.0053,4.012,4.0126,4.0133,4.0167,4.0159,4.0162,4.0164,4.0252,4.0252,4.0253,0,0,0,0,0,0,3.9904,3.9912,3.9991,3.9959,3.997,4.0005,4.0023,4.0029,4.0043,4.0082,4.0089,4.006,4.012,4.0128,4.0162,4.017,4.0164,4.0167,4.0251,4.0252,4.0253,4.0235,0,0,0,0,0,0,3.9901,3.9911,3.992,3.9959,3.9971,4.0016,4.0023,4.003,4.0048,4.005,4.0091,4.0098,4.012,4.0157,4.0165,4.0175,4.0169,4.0251,4.0252,4.0253,4.0235,4.0235,4.0235,0,0,0,0,0,3.9897,3.9912,3.992,3.9929,3.9982,4.0016,4.0024,4.0048,4.0049,4.0059,4.0084,4.0097,4.0168,4.016,4.0169,4.018,4.025,4.0251,4.0252,4.0235,4.0235,4.0235,0,0,0,0,0,0,3.9874,3.9918,3.9927,3.9954,3.9981,4.0021,4.0034,4.0046,4.0075,4.0075,4.0106,4.0115,4.0146,4.0167,4.0157,4.0209,4.021,4.0213,4.0194,4.0194,4.0194,4.0189,4.0172,0,0,0,0,0,3.9872,3.9894,3.9932,3.9953,3.9966,3.9998,4.0014,4.003,4.006,4.0072,4.0099,4.0129,4.0159,4.0178,4.0207,4.0238,4.0249,4.025,4.025,4.025,4.0253,4.0274,4.0275,4.0256,4.0256,4.0256,0,0,3.9868,3.9895,3.9907,3.9949,3.9972,3.9997,4.0007,4.0032,4.0052,4.0076,4.0109,4.0131,4.0167,4.0199,4.0215,4.0218,4.026,4.0251,4.0251,4.0254,4.0275,4.0277,4.0278,4.0257,4.0257,4.0257,0,0,3.9874,3.9895,3.9916,3.9939,3.9973,3.9995,4.0,4.0038,4.0053,4.0087,4.0106,4.0131,4.018,4.0206,4.0225,4.0244,4.0258,4.0253,4.0253,4.0273,4.0274,4.0276,4.0284,4.0287,4.0255,4.0255,4.0255,0,3.9865,3.9902,3.9926,3.9951,3.997,3.9992,4.0015,4.0037,4.0079,4.0093,4.0094,4.0159,4.0184,4.0225,4.0229,4.0244,4.0253,4.0248,4.0272,4.0273,4.0275,4.0284,4.0287,4.0254,4.0254,4.0254,4.0254,0,3.989,3.9916,3.9929,3.9968,3.9989,4.0013,4.0043,4.0062,4.0077,4.0099,4.0135,4.0166,4.0203,4.0214,4.0229,4.0258,4.0259,4.0265,4.0268,4.0276,4.0285,4.0288,4.0253,4.0253,4.0253,4.0254,0,0,3.9882,3.9936,3.9941,3.996,4.0001,4.0022,4.0048,4.0083,4.01,4.0129,4.0154,4.0196,4.0204,4.0226,4.0245,4.0262,4.0278,4.0268,4.0269,4.027,4.0314,4.0309,4.0312,4.0287,4.0288,4.0289,4.0312,0,3.9894,3.994,3.9964,4.0,4.0026,4.0049,4.0072,4.0101,4.0123,4.015,4.0175,4.0205,4.0212,4.0226,4.0244,4.0272,4.0287,4.027,4.0313,4.0314,4.0303,4.0317,4.0311,4.0331,4.0315,4.0316,4.0316,0,3.9914,3.9943,3.9981,4.0021,4.0033,4.0053,4.0089,4.0113,4.0148,4.0163,4.0189,4.0208,4.0239,4.024,4.0286,4.0274,4.0293,4.0309,4.0311,4.0316,4.0316,4.0324,4.0338,4.0342,4.0322,4.0321,4.0321,0,3.9906,3.9954,3.9984,4.0,4.0047,4.0061,4.0082,4.0116,4.0137,4.0169,4.0183,4.0219,4.0239,4.0267,4.0297,4.0294,4.0341,4.0343,4.0356,4.0356,4.0365,4.0364,4.0384,4.0376,4.0376,4.0375,4.0375,0,3.9917,3.994,3.9981,4.0,4.0028,4.0057,4.0084,4.0107,4.0138,4.0164,4.0186,4.021,4.0247,4.0277,4.03,4.0336,4.0344,4.0359,4.0365,4.0358,4.0356,4.0371,4.0371,4.0376,4.0376,4.0376,4.0376,0,3.9912,3.994,3.9975,4.0017,4.0028,4.0047,4.0085,4.0105,4.0129,4.0161,4.0171,4.0209,4.0245,4.0277,4.0325,4.0341,4.0379,4.0386,4.0366,4.037,4.0382,4.0381,4.0413,4.0419,4.0405,4.0406,4.0406,0,3.9918,3.9936,3.998,3.9998,4.0018,4.0047,4.0068,4.0099,4.012,4.0163,4.0179,4.0217,4.0248,4.0306,4.034,4.0378,4.0386,4.0395,4.0392,4.0385,4.0389,4.0388,4.0391,4.0395,4.0395,4.0395,4.0395,0,3.9925,3.9939,3.9967,4.0002,4.0026,4.0055,4.0085,4.0099,4.0136,4.0159,4.0196,4.0221,4.027,4.0309,4.0351,4.0375,4.0392,4.0396,4.0401,4.0394,4.0382,4.0391,4.0367,4.0395,4.0395,4.0395,4.0395,4.0395,3.9927,3.9945,3.9979,4.0012,4.0037,4.0065,4.0087,4.0114,4.0145,4.0186,4.0203,4.0241,4.028,4.0338,4.0362,4.0395,4.0398,4.0405,4.0407,4.0409,4.0408,4.0377,4.0402,4.0402,4.0402,4.0403,4.0403,0,3.9936,3.996,3.9989,4.003,4.0056,4.0069,4.0104,4.0125,4.0158,4.0191,4.0222,4.0266,4.0304,4.0342,4.0382,4.0401,4.0411,4.0411,4.0411,4.0417,4.0402,4.0394,4.0403,4.0403,4.0403,4.0403,4.0403,4.0403,3.9944,3.9977,3.9995,4.0042,4.0066,4.0102,4.0122,4.0149,4.0176,4.0223,4.0254,4.0278,4.0315,4.0359,4.0395,4.0406,4.042,4.0419,4.0432,4.0418,4.0417,4.0417,4.0409,4.0422,4.0422,4.0444,4.0444,4.0444]}]]